Weather History for Kansas City International, MO

Change the Weather History Date:

Wednesday, August 13, 2014

  Actual Average Record
Temperature  
Mean Temperature 70 °F 78 °F  
Max Temperature 82 °F 88 °F 110 °F (1936)
Min Temperature 58 °F 68 °F 54 °F (1992)
Degree Days  
Heating Degree Days 0 0  
Month to date heating degree days 0 0  
Since 1 June heating degree days 3 9  
Since 1 July heating degree days 2 0  
Cooling Degree Days 5 13  
Month to date cooling degree days 131 170  
Year to date cooling degree days 855 966  
Since 1 June cooling degree days 694 850  
Growing Degree Days 20 (Base 50)    
Moisture  
Dew Point 57 °F    
Average Humidity 68    
Maximum Humidity 93    
Minimum Humidity 42    
Precipitation  
Precipitation 0.00 in 0.12 in 2.71 in (2005)
Month to date precipitation 4.52 1.56  
Year to date precipitation 23.09 25.07  
Snow  
Snow 0.00 in 0.00 in 0.00 in ()
Month to date snowfall 0.0 0.0  
Since 1 June snowfall 0.0 0.0  
Since 1 July snowfall 0.0 0.0  
Snow Depth 0.00 in    
Sea Level Pressure  
Sea Level Pressure 30.10 in    
Wind  
Wind Speed 5 mph (North)    
Max Wind Speed 10 mph    
Max Gust Speed 13 mph    
Visibility 10 miles    
Events      
T = Trace of Precipitation, MM = Missing Value Source: NWS Daily Summary

Daily Weather History Graph

Daily Weather History Graph

Search for Another Location

Airport:

Trip Planner

Search our weather history database for the weather conditions in past years. The results will help you decide how hot, cold, wet, or windy it might be!

Date:

Astronomy

Aug. 13, 2014 Rise Set
Actual Time 6:29 AM CDT 8:16 PM CDT
Civil Twilight 6:01 AM CDT 8:45 PM CDT
Nautical Twilight 5:26 AM CDT 9:20 PM CDT
Astronomical Twilight 4:48 AM CDT 9:57 PM CDT
Moon 10:04 PM CDT (8/13) 9:57 AM CDT (8/13)
Length of Visible Light 14h 44m
Length of Day
13h 46m
Waning Gibbous, 87% of the Moon is Illuminated
Aug 13
Waning Gibbous
Aug 17
Last Quarter
Aug 25
New
Sep 2
First Quarter
Sep 8
Full

Hourly Weather History & Observations

Time (CDT) Temp. Heat Index Dew Point Humidity Pressure Visibility Wind Dir Wind Speed Gust Speed Precip Events Conditions
12:53 AM 63.0 °F - 57.0 °F 81% 30.09 in 10.0 mi West 4.6 mph - N/A   Clear
1:53 AM 61.0 °F - 55.0 °F 81% 30.10 in 10.0 mi Calm Calm - N/A   Clear
2:53 AM 63.0 °F - 57.0 °F 81% 30.11 in 10.0 mi NW 3.5 mph - N/A   Clear
3:53 AM 62.1 °F - 57.0 °F 84% 30.12 in 10.0 mi NW 4.6 mph - N/A   Clear
4:53 AM 60.1 °F - 57.0 °F 90% 30.11 in 10.0 mi NNW 5.8 mph - N/A   Clear
5:53 AM 60.1 °F - 55.9 °F 86% 30.12 in 10.0 mi NW 5.8 mph - N/A   Clear
8:53 AM 69.1 °F - 59.0 °F 70% 30.14 in 10.0 mi North 3.5 mph - N/A   Clear
9:53 AM 73.4 °F - 59.0 °F 61% 30.18 in 10.0 mi Variable 3.5 mph - N/A   Clear
10:53 AM 75.0 °F - 59.0 °F 57% 30.15 in 10.0 mi WSW 4.6 mph - N/A   Partly Cloudy
11:53 AM 75.9 °F - 55.9 °F 50% 30.14 in 10.0 mi SE 3.5 mph - N/A   Partly Cloudy
12:53 PM 78.1 °F - 55.9 °F 46% 30.13 in 10.0 mi Calm Calm - N/A   Partly Cloudy
1:53 PM 79.0 °F - 55.0 °F 44% 30.11 in 10.0 mi ENE 6.9 mph - N/A   Partly Cloudy
2:53 PM 81.0 °F 81.1 °F 57.9 °F 45% 30.11 in 10.0 mi North 6.9 mph - N/A   Partly Cloudy
3:53 PM 81.0 °F 80.8 °F 55.9 °F 42% 30.09 in 10.0 mi Variable 5.8 mph - N/A   Partly Cloudy
4:53 PM 81.0 °F 81.0 °F 57.0 °F 44% 30.08 in 10.0 mi North 5.8 mph - N/A   Partly Cloudy
5:53 PM 80.1 °F 80.4 °F 57.0 °F 45% 30.07 in 10.0 mi NE 5.8 mph - N/A   Clear
6:53 PM 79.0 °F - 57.9 °F 48% 30.06 in 10.0 mi NNE 4.6 mph - N/A   Partly Cloudy
7:53 PM 75.0 °F - 57.9 °F 55% 30.05 in 10.0 mi NE 6.9 mph - N/A   Partly Cloudy
8:53 PM 73.9 °F - 59.0 °F 59% 30.05 in 10.0 mi East 5.8 mph - N/A   Partly Cloudy
9:53 PM 72.0 °F - 57.9 °F 61% 30.06 in 10.0 mi ESE 8.1 mph - N/A   Clear
11:53 PM 68.0 °F - 57.9 °F 70% 30.08 in 10.0 mi SE 5.8 mph - N/A   Clear